TimeCST,TemperatureF,Dew PointF,Humidity,Sea Level PressureIn,VisibilityMPH,Wind Direction,Wind SpeedMPH,Gust SpeedMPH,PrecipitationIn,Events,Conditions,WindDirDegrees,DateUTC
12:54 AM,25.0,19.0,78,29.90,10.0,West,12.7,-,N/A,,Overcast,260,2012-11-12 06:54:00
1:54 AM,24.1,17.1,75,29.93,10.0,WNW,9.2,18.4,N/A,,Overcast,290,2012-11-12 07:54:00
2:54 AM,24.1,16.0,71,29.93,10.0,West,10.4,21.9,N/A,,Overcast,260,2012-11-12 08:54:00
3:54 AM,21.9,15.1,75,29.94,10.0,WSW,17.3,24.2,N/A,,Overcast,250,2012-11-12 09:54:00
4:54 AM,19.9,12.0,71,29.97,10.0,West,12.7,21.9,N/A,,Overcast,280,2012-11-12 10:54:00
5:54 AM,21.0,12.9,71,29.96,9.0,West,10.4,23.0,0.00,Snow,Light Snow,270,2012-11-12 11:54:00
6:54 AM,21.0,12.9,71,29.98,10.0,West,12.7,19.6,0.00,,Overcast,260,2012-11-12 12:54:00
7:54 AM,19.9,10.9,68,29.99,10.0,West,12.7,21.9,0.00,,Scattered Clouds,260,2012-11-12 13:54:00
8:19 AM,19.4,12.2,74,29.94,10.0,WSW,19.6,24.2,N/A,,Mostly Cloudy,250,2012-11-12 14:19:00
8:54 AM,21.0,12.0,68,30.00,10.0,West,18.4,27.6,N/A,,Mostly Cloudy,260,2012-11-12 14:54:00
9:06 AM,21.2,12.2,68,29.94,10.0,West,18.4,26.5,N/A,,Scattered Clouds,270,2012-11-12 15:06:00
9:30 AM,21.2,10.4,63,29.94,10.0,West,18.4,28.8,N/A,,Mostly Cloudy,270,2012-11-12 15:30:00
9:40 AM,21.2,10.4,63,29.94,10.0,West,16.1,26.5,N/A,,Overcast,270,2012-11-12 15:40:00
9:52 AM,21.2,10.4,63,29.94,10.0,West,18.4,28.8,N/A,,Overcast,270,2012-11-12 15:52:00
9:54 AM,21.0,10.0,63,30.00,10.0,West,16.1,28.8,N/A,,Overcast,280,2012-11-12 15:54:00
10:04 AM,21.2,10.4,63,29.94,10.0,West,13.8,24.2,N/A,,Overcast,280,2012-11-12 16:04:00
10:54 AM,23.0,12.0,63,30.01,9.0,WSW,18.4,-,N/A,,Overcast,250,2012-11-12 16:54:00
11:54 AM,23.0,12.9,65,30.00,9.0,West,16.1,24.2,0.00,,Overcast,260,2012-11-12 17:54:00
12:54 PM,24.1,12.9,62,30.00,10.0,West,12.7,28.8,N/A,,Overcast,260,2012-11-12 18:54:00
1:54 PM,24.1,16.0,71,30.02,6.0,West,12.7,24.2,0.00,Snow,Light Snow,270,2012-11-12 19:54:00
2:54 PM,24.1,14.0,65,30.04,8.0,West,18.4,24.2,0.00,Snow,Light Snow,260,2012-11-12 20:54:00
4:54 PM,24.1,14.0,65,30.11,10.0,West,13.8,23.0,N/A,,Overcast,280,2012-11-12 22:54:00
5:54 PM,24.1,14.0,65,30.15,10.0,West,15.0,-,N/A,,Overcast,270,2012-11-12 23:54:00
6:54 PM,23.0,16.0,74,30.17,8.0,West,12.7,23.0,0.00,Snow,Light Snow,280,2012-11-13 00:54:00
7:54 PM,23.0,15.1,72,30.20,10.0,West,12.7,-,0.00,,Overcast,270,2012-11-13 01:54:00
8:54 PM,23.0,15.1,72,30.23,10.0,West,12.7,-,N/A,,Overcast,260,2012-11-13 02:54:00
9:54 PM,23.0,15.1,72,30.26,10.0,West,9.2,17.3,N/A,,Overcast,280,2012-11-13 03:54:00
10:54 PM,23.0,15.1,72,30.28,10.0,West,12.7,19.6,N/A,,Overcast,280,2012-11-13 04:54:00
11:54 PM,23.0,14.0,68,30.30,10.0,WNW,9.2,-,N/A,,Overcast,290,2012-11-13 05:54:00